• Processing (Info)

  • MPEC 2014-H79 : 2014 HL132

    The following Minor Planet Electronic Circular may be linked-to from your own Web pages, but must not otherwise be redistributed electronically.

    A form allowing access to any MPEC is at the bottom of this page.


    Read MPEC 2014-H78 Read MPEC 2014-H80


    M.P.E.C. 2014-H79                                Issued 2014 Apr. 30, 14:29 UT
    
         The Minor Planet Electronic Circulars contain information on unusual
             minor planets and routine data on comets.  They are published
       on behalf of Commission 20 of the International Astronomical Union by the
              Minor Planet Center, Smithsonian Astrophysical Observatory,
                              Cambridge, MA 02138, U.S.A.
    
                 Prepared using the Tamkin Foundation Computer Network
    
                                  MPC@CFA.HARVARD.EDU
                URL https://www.minorplanetcenter.net/    ISSN 1523-6714
    
                                      2014 HL132
    
    Observations:
         K14HD2L*5C2014 04 25.11840 13 55 46.72 -18 03 05.1          21.5 VoEH079W84
         K14HD2L 5C2014 04 25.12163 13 55 46.15 -18 03 05.9                oEH079W84
         K14HD2L 5C2014 04 25.12491 13 55 45.58 -18 03 06.8                oEH079W84
         K14HD2L 5C2014 04 25.12815 13 55 45.01 -18 03 07.7                oEH079W84
         K14HD2L 5C2014 04 25.13138 13 55 44.44 -18 03 08.5                oEH079W84
         K14HD2L KC2014 04 28.93090713 43 16.990-18 19 46.14         19.6 RtEH079J04
         K14HD2L KC2014 04 28.93681513 43 15.493-18 19 47.74         19.7 RtEH079J04
         K14HD2L KC2014 04 28.94271013 43 13.985-18 19 49.59         19.8 RtEH079J04
         K14HD2L KC2014 04 28.94861013 43 12.492-18 19 51.28         19.7 RtEH079J04
         K14HD2L |C2014 04 29.08140 13 42 40.90 -18 19 42.0          20.2 VuEH079807
         K14HD2L |C2014 04 29.08529 13 42 39.88 -18 19 43.6          20.3 VuEH079807
         K14HD2L |C2014 04 29.08916 13 42 38.88 -18 19 44.2          20.3 VuEH079807
         K14HD2L  C2014 04 29.25459 13 41 57.24 -18 21 13.4                oEH079711
         K14HD2L  C2014 04 29.25796 13 41 56.37 -18 21 14.3                oEH079711
         K14HD2L  C2014 04 29.26092 13 41 55.57 -18 21 15.3                oEH079711
         K14HD2L  C2014 04 29.26410 13 41 54.73 -18 21 16.1                oEH079711
         K14HD2L |C2014 04 30.14492 13 38 07.06 -18 24 19.5          18.9 VuEH079807
         K14HD2L |C2014 04 30.14900 13 38 05.89 -18 24 20.5          18.8 VuEH079807
         K14HD2L |C2014 04 30.15329 13 38 04.66 -18 24 21.7          19.5 VuEH079807
         K14HD2L KC2014 04 30.56934 13 36 07.32 -18 25 56.3          20.0 RoEH079474
         K14HD2L KC2014 04 30.57145 13 36 06.72 -18 25 56.9          19.6 RoEH079474
         K14HD2L KC2014 04 30.57356 13 36 06.05 -18 25 57.0          20.2 RoEH079474
    
    Observer details:
    474 Mount John Observatory, Lake Tekapo.  Observers A. C. Gilmore,
        P. M. Kilmartin.  Measurer P. M. Kilmartin.  1.0-m f/7.7 reflector + CCD.
    711 McDonald Observatory.  Observer J. G. Ries.  2.1-m reflector + CCD + focal
        reducer.
    807 Cerro Tololo.  Observers T. Linder, R. Holmes.  0.41-m f/11
        Ritchey-Chretien + CCD.
    J04 ESA Optical Ground Station, Tenerife.  Observer P. Ruiz.  Measurers
        M. Micheli, D. Koschny, M. Busch, A. Knoefel, E. Schwab.  1.0-m f/4.4
        reflector + CCD.
    W84 Cerro Tololo-DECam.  Measurer F. Valdes.  4.0-m CTIO reflector.
    
    Orbital elements:
    2014 HL132                                               Earth MOID = 0.0164 AU
    Epoch 2014 May 23.0 TT = JDT 2456800.5                  MPC
    M 349.20430              (2000.0)            P               Q
    n   0.28516455     Peri.  325.80459     +0.63407346     +0.77324159
    a   2.2859797      Node   343.54316     -0.70386792     +0.57341835
    e   0.7012215      Incl.    1.40546     -0.32018868     +0.27071911
    P   3.46           H   22.7           G   0.15           U   6
    Residuals in seconds of arc
    140425 W84  0.0   0.0     140428 J04  0.0   0.0     140430 807  0.3-  0.1-
    140425 W84  0.0   0.0     140429 807  0.2+  0.0     140430 807  0.0   0.0
    140425 W84  0.0   0.0     140429 807  0.1-  0.4-    140430 807  0.3+  0.1-
    140425 W84  0.0   0.0     140429 807  0.1-  0.1+    140430 474  0.0   0.0
    140425 W84  0.0   0.0     140429 711  0.1+  0.1+    140430 474  0.4+  0.1-
    140428 J04  0.0   0.2-    140429 711  0.4+  0.1+    140430 474  0.1-  0.3+
    140428 J04  0.0   0.0     140429 711  0.1+  0.1-
    140428 J04  0.1-  0.1-    140429 711  0.1+  0.1-
    
    Ephemeris:
    2014 HL132               a,e,i = 2.29, 0.70, 1                   q = 0.6830
    Date    TT    R. A. (2000) Decl.     Delta      r     Elong.  Phase     V
    2014 03 31    14 21 35.2 -16 29 53   0.5560  1.5106   151.4    18.5    23.3
    ...
    2014 04 15    14 13 38.3 -17 24 57   0.3524  1.3490   167.2     9.5    21.7
    ...
    2014 04 23    14 00 57.3 -17 54 46   0.2562  1.2606   174.4     4.4    20.6
    ...
    2014 04 29    13 42 59.2 -18 19 32   0.1895  1.1937   169.3     9.0    20.1
    2014 04 30    13 38 46.1 -18 23 51   0.1788  1.1825   167.6    10.5    20.0
    2014 05 01    13 34 02.8 -18 28 11   0.1683  1.1713   165.7    12.2    19.9
    ...
    2014 05 07    12 48 19.7 -18 45 38   0.1086  1.1042   149.8    27.3    19.3
    ...
    2014 05 15    09 25 47.8 -11 58 23   0.05329 1.0156    93.8    83.2    19.3
    ...
    2014 05 30    04 04 44.5 +12 58 21   0.1575  0.8591    10.1   168.0    33.5
    
    A. U. Tomatic                (C) Copyright 2014 MPC           M.P.E.C. 2014-H79
    

    Read MPEC 2014-H78 Read MPEC 2014-H80


    MPEC number:

    Enter an MPEC number in one of the following forms:

    • 1997-B01 (the full form)
    • J97B01 (the packed version of the full form)
    • B01 (the abbreviated form)